Temperature
7 5 4 5 5 6 6 6 6 6 6 6 4 4 4 4 4 3 4 4 4 4 4 5 4 5 5 4 4 4 4 4 4 4 4 4 4 4 4 4 5 5 5 5
5 4 5 5 6 6 6 5 5 5 5 5 4 3 3 3 3 3 3 3 3 3 3 3 4 4 4 4 4 4 4 4 4 4 4 4 4 4 4 4 4 4 4 4
5 5 5 6 5 5 5 4 4 4 4 4 3 3 3 3 3 3 2 2 3 3 3 3 3 3 3 3 3 3 3 3 3 3 3 3 3 3 3 3 3 3 3 4
4 5 5 5 4 4 4 4 4 4 3 2 3 2 2 2 1 1 1 1 1 1 2 2 2 2 2 2 3 3 3 3 3 2 2 2 2 2 3 3 3 3 3 3
4 4 4 4 4 4 3 4 3 3 2 2 2 2 1 1 1 0 -0 0 0 0 1 1 1 1 2 2 2 2 2 2 2 2 2 2 2 2 2 2 2 2 2 2
3 4 4 4 4 4 3 2 2 1 1 2 1 1 1 -0 0 0 -1 -1 -0 -0 -0 0 0 1 1 1 1 1 1 1 1 1 1 1 1 1 1 1 1 1 2 2
3 3 3 3 3 3 2 2 1 1 1 1 1 1 0 -1 -1 -1 -1 -1 -1 -1 -1 -1 -0 -0 0 0 0 0 0 0 0 0 0 0 0 0 0 1 1 1 1 1
2 2 2 2 2 2 1 2 2 2 1 1 1 -0 -1 -1 -2 -1 -1 -1 -2 -2 -2 -2 -1 -1 -1 -1 -1 -1 -1 -0 -0 -1 -0 -1 -1 -0 -0 -0 0 0 0 0
1 2 2 2 2 2 1 0 1 0 -0 -1 -0 -1 -1 -2 -2 -2 -2 -2 -2 -2 -2 -2 -2 -2 -2 -2 -1 -1 -1 -1 -1 -1 -1 -1 -1 -1 -1 -1 -1 -1 -0 -0
1 1 1 1 2 1 1 -0 -1 -1 -0 -0 -0 -2 -1 -2 -2 -3 -3 -3 -3 -3 -3 -3 -3 -2 -2 -2 -2 -2 -2 -2 -2 -2 -2 -2 -2 -2 -2 -2 -1 -1 -1 -1
0 -0 0 0 -0 0 -0 -0 -1 -1 -1 -1 -1 -1 -2 -2 -3 -3 -4 -3 -3 -3 -3 -3 -3 -3 -3 -3 -3 -3 -3 -2 -2 -2 -2 -2 -2 -2 -2 -2 -2 -2 -2 -2
-1 -2 -1 -1 -1 -1 -1 -1 -1 -1 -2 -2 -2 -2 -3 -3 -3 -4 -4 -4 -4 -4 -4 -4 -4 -4 -3 -3 -3 -3 -3 -3 -3 -3 -3 -3 -3 -3 -3 -3 -3 -3 -2 -2
-1 -2 -1 -0 -1 -1 -2 -2 -2 -3 -3 -3 -3 -2 -3 -4 -4 -4 -4 -4 -5 -5 -5 -5 -4 -4 -4 -4 -4 -4 -4 -4 -4 -4 -4 -4 -4 -4 -4 -3 -3 -3 -3 -3
-1 -3 -2 -0 -1 -2 -3 -3 -4 -3 -3 -4 -4 -3 -3 -4 -5 -5 -5 -5 -5 -5 -5 -5 -5 -5 -5 -5 -5 -5 -5 -4 -4 -4 -4 -4 -4 -4 -4 -4 -4 -4 -4 -4
-2 -3 -3 -3 -3 -3 -4 -4 -4 -4 -4 -4 -4 -5 -5 -5 -6 -5 -5 -6 -6 -6 -6 -6 -6 -6 -6 -6 -5 -5 -5 -5 -5 -5 -5 -5 -5 -5 -5 -4 -4 -4 -4 -4
-3 -3 -4 -4 -3 -4 -4 -4 -5 -5 -5 -5 -5 -5 -6 -6 -6 -6 -7 -7 -7 -7 -7 -7 -7 -7 -7 -6 -6 -6 -6 -6 -6 -5 -5 -5 -5 -5 -5 -5 -5 -5 -5 -5
-4 -4 -4 -4 -4 -4 -4 -5 -6 -6 -7 -7 -6 -6 -7 -7 -7 -7 -7 -8 -8 -8 -8 -8 -8 -8 -7 -7 -7 -7 -6 -6 -6 -6 -6 -6 -6 -6 -5 -5 -5 -5 -5 -5
-5 -5 -5 -4 -5 -4 -4 -6 -6 -6 -8 -8 -8 -8 -8 -8 -8 -8 -8 -8 -9 -9 -9 -8 -8 -8 -8 -7 -7 -7 -7 -7 -7 -7 -7 -6 -6 -6 -6 -6 -6 -6 -6 -6
-5 -5 -5 -5 -6 -5 -5 -6 -7 -7 -8 -9 -9 -9 -9 -9 -9 -8 -8 -9 -9 -9 -9 -9 -9 -9 -8 -8 -8 -8 -7 -7 -7 -7 -7 -7 -7 -7 -7 -7 -6 -6 -6 -6
-6 -6 -6 -6 -5 -5 -5 -7 -7 -7 -7 -8 -9 -10 -10 -10 -9 -9 -9 -10 -10 -9 -9 -9 -9 -9 -9 -8 -8 -8 -8 -8 -8 -8 -8 -8 -8 -7 -7 -7 -7 -7 -7 -7
-7 -7 -7 -7 -7 -7 -8 -8 -8 -7 -7 -8 -9 -9 -10 -10 -10 -10 -10 -10 -10 -10 -10 -10 -9 -9 -9 -9 -9 -9 -9 -9 -9 -8 -8 -8 -8 -8 -8 -8 -8 -7 -7 -7
-7 -8 -8 -8 -8 -7 -8 -9 -9 -8 -8 -9 -9 -9 -10 -10 -10 -10 -10 -11 -11 -10 -10 -10 -10 -10 -10 -10 -9 -9 -9 -9 -9 -9 -9 -8 -8 -8 -8 -8 -8 -8 -8 -8
-9 -8 -9 -8 -8 -8 -9 -9 -8 -8 -9 -9 -9 -9 -10 -10 -11 -11 -11 -11 -11 -11 -11 -11 -10 -10 -10 -10 -10 -10 -10 -10 -9 -9 -9 -9 -9 -9 -9 -9 -9 -9 -9 -9
-9 -10 -9 -10 -9 -9 -9 -9 -9 -9 -9 -9 -10 -10 -10 -11 -11 -11 -12 -12 -12 -11 -11 -11 -11 -11 -10 -10 -11 -10 -10 -10 -10 -10 -10 -9 -9 -9 -9 -9 -10 -10 -10 -10
-10 -10 -10 -10 -10 -10 -9 -9 -9 -9 -10 -10 -10 -10 -11 -11 -12 -12 -12 -12 -12 -12 -12 -12 -11 -11 -11 -11 -11 -11 -11 -11 -10 -10 -10 -10 -10 -10 -10 -10 -10 -10 -10 -10
-11 -11 -11 -10 -10 -10 -9 -9 -10 -10 -10 -10 -11 -11 -11 -12 -12 -12 -12 -12 -12 -12 -12 -12 -12 -12 -12 -11 -11 -11 -11 -11 -11 -11 -11 -11 -11 -11 -11 -10 -10 -10 -11 -11
Wind_Speed
2 4 3 6 6 4 4 4 6 6 2 3 6 8 7 4 2 3 3 2 2 2 0 1 2 2 3 2 2 3 3 3 3 2 2 1 1 1 1 0 0 0 0 1
3 2 5 3 2 3 3 5 6 5 3 3 4 6 5 3 3 3 3 3 1 1 3 2 2 2 2 2 2 3 3 3 3 2 2 2 2 1 1 1 1 1 0 0
5 3 2 2 1 2 4 6 6 5 5 3 2 5 4 2 1 2 1 0 0 1 1 1 1 1 1 2 2 2 3 3 2 2 1 1 1 0 0 1 1 1 1 1
2 3 0 1 2 3 6 4 4 4 2 4 2 5 4 2 2 3 3 3 2 2 1 1 1 1 1 2 2 2 2 2 2 2 3 3 2 2 2 2 2 2 2 2
3 1 0 2 3 3 5 2 2 3 3 3 2 4 6 1 2 3 2 2 3 3 2 2 2 2 2 1 1 2 2 2 1 2 3 3 3 2 1 1 2 2 2 2
3 2 1 2 2 1 0 2 3 2 2 5 6 6 5 3 4 2 1 2 3 4 4 3 4 3 2 1 1 1 1 1 1 1 2 3 3 3 2 2 3 3 2 2
4 3 1 1 1 2 3 3 3 4 2 7 3 4 5 3 1 2 1 1 3 3 4 4 5 5 4 2 1 1 1 1 1 1 2 3 4 4 4 4 4 3 3 3
2 5 3 1 3 3 2 4 4 4 5 5 2 5 3 1 2 2 2 1 3 3 4 4 4 4 4 4 2 2 2 2 2 2 3 3 3 3 3 4 4 4 4 4
2 5 2 1 1 4 2 3 3 3 1 3 4 3 3 2 3 2 2 3 3 3 4 4 4 4 4 4 4 3 2 2 2 2 3 3 3 3 4 4 4 4 4 4
3 5 4 2 2 1 2 4 3 3 2 5 5 4 3 2 2 2 3 3 4 3 4 4 4 5 5 4 5 4 2 3 3 3 3 3 3 3 3 3 4 4 4 4
1 3 4 2 3 4 2 2 3 3 3 3 4 5 2 3 2 1 2 3 4 4 4 3 4 4 5 5 5 4 3 3 3 3 3 3 3 3 3 4 4 5 4 4
1 2 4 6 4 2 3 4 5 4 5 4 4 5 1 1 1 0 2 3 4 4 4 4 4 4 5 5 5 5 4 4 4 4 4 4 4 4 4 4 5 4 5 5
2 2 3 5 3 2 1 1 2 3 2 4 4 5 1 2 1 2 2 3 4 5 5 5 5 5 5 5 6 6 5 5 4 4 4 4 4 4 4 5 5 5 5 5
2 3 5 7 5 2 3 2 2 3 3 4 6 7 5 4 4 4 3 4 5 5 5 6 5 5 6 6 6 6 6 5 4 4 4 4 4 4 5 4 4 4 4 4
2 3 4 7 6 3 4 5 3 6 6 7 6 5 7 6 4 4 4 5 6 6 7 7 6 6 7 7 6 6 6 5 4 4 4 5 4 4 4 4 4 4 4 4
1 2 2 4 2 2 4 5 4 5 4 6 7 8 6 5 3 4 5 6 6 7 8 8 8 8 8 8 8 7 7 6 5 4 4 4 4 4 4 4 4 4 3 4
1 2 1 4 4 4 5 3 3 3 3 4 6 5 5 6 6 5 5 6 6 8 8 9 9 8 9 8 8 7 7 6 5 5 4 4 4 4 5 4 4 4 4 4
3 2 2 3 4 4 4 0 2 2 1 2 3 5 6 8 8 6 4 5 7 8 9 9 9 9 8 8 7 7 6 5 5 5 5 5 4 5 5 4 4 4 3 4
2 3 2 1 2 6 4 2 1 2 4 1 3 6 7 8 5 4 3 4 6 7 8 8 9 9 8 8 7 6 6 5 5 5 5 5 4 5 5 4 4 3 3 3
3 3 2 2 2 5 4 3 3 1 4 2 3 6 7 6 5 6 6 7 8 8 8 8 8 7 7 8 6 5 5 5 5 6 6 5 4 5 5 4 4 3 3 3
1 0 2 4 5 5 4 4 1 2 5 4 4 6 6 5 5 7 8 8 7 8 9 8 7 7 7 8 6 5 6 6 6 6 5 5 4 4 4 3 3 3 3 3
4 3 3 3 4 6 2 2 2 4 4 4 5 5 6 6 6 7 7 8 8 9 9 8 7 7 8 7 6 6 7 7 6 5 5 5 4 4 3 3 2 2 2 2
3 4 3 5 5 2 1 2 3 3 4 5 4 5 4 5 6 7 7 7 8 8 8 7 7 8 8 7 6 6 8 7 6 5 5 4 4 3 3 2 2 2 1 1
2 1 2 3 4 3 3 3 3 3 4 5 4 4 4 5 5 6 6 7 7 8 7 7 7 8 8 8 7 7 7 7 5 5 5 4 4 3 3 3 2 2 2 2
3 1 1 3 4 4 3 3 3 4 4 4 4 4 3 3 5 5 6 7 7 8 7 7 6 7 8 8 8 8 8 6 5 5 5 5 4 3 3 3 2 2 2 2
1 3 3 4 4 3 5 4 3 4 5 4 4 4 3 3 4 5 6 6 6 7 7 7 7 7 8 8 8 9 8 6 5 5 5 4 3 3 3 3 3 4 4 5
Wind_Direction
69 83 202 217 207 208 200 221 254 263 267 230 241 260 277 276 274 271 275 257 232 242 267 87 98 108 103 106 134 146 141 144 137 143 153 167 205 228 281 292 284 174 125 111
52 249 241 223 219 232 236 249 264 286 304 253 264 274 281 271 251 250 248 248 237 356 30 51 60 94 126 153 167 168 165 168 173 179 182 190 196 220 247 291 330 261 230 194
182 243 237 181 225 232 239 227 246 269 318 314 305 296 277 306 337 347 360 323 124 144 124 60 50 162 170 176 189 188 188 180 186 180 162 136 102 49 340 291 277 279 254 236
231 274 245 189 235 203 250 241 248 260 288 274 217 273 270 266 337 2 357 6 2 7 29 25 354 297 242 228 209 197 187 183 185 178 178 176 191 220 244 235 253 289 269 243
264 277 209 227 246 201 237 269 253 242 217 274 247 226 274 285 289 304 324 352 7 9 9 344 318 276 266 256 239 211 195 182 189 192 193 198 223 236 260 250 253 262 276 247
263 276 215 231 286 217 243 29 24 44 104 259 226 203 266 244 229 250 318 354 359 358 357 359 359 355 339 335 343 310 221 231 215 206 206 208 224 235 233 245 242 253 260 262
320 298 300 94 24 15 59 74 10 340 295 250 207 197 249 267 246 200 228 344 348 354 358 359 358 359 352 342 334 326 295 274 264 249 234 229 226 223 223 232 232 244 258 265
302 288 260 233 188 199 206 156 174 226 244 279 262 221 245 332 36 59 77 49 4 357 350 345 342 345 348 340 320 297 285 276 268 255 256 249 241 233 236 238 241 240 247 252
230 266 307 309 268 157 161 199 179 160 253 271 258 273 289 59 30 38 35 16 354 342 339 336 340 345 342 338 320 296 279 283 279 275 281 270 254 250 247 244 246 247 255 263
186 266 285 310 37 19 157 155 113 148 220 262 273 255 245 246 282 331 341 332 326 334 339 340 342 340 336 333 328 313 303 284 283 282 278 288 272 259 255 248 249 254 257 260
135 227 299 331 212 212 159 165 166 175 189 205 267 267 224 195 199 253 302 323 329 332 327 325 329 333 335 337 338 328 317 305 296 291 287 283 277 273 269 259 255 256 256 255
147 154 266 261 266 252 190 191 163 183 238 214 230 260 288 162 166 258 308 324 334 329 323 323 324 333 338 337 337 331 314 299 290 283 282 281 278 278 269 267 265 261 259 259
143 132 318 324 323 351 278 229 185 164 169 200 214 251 352 51 20 347 324 321 326 330 332 329 329 331 329 327 327 323 315 299 293 287 283 283 281 280 275 272 272 266 260 261
127 174 203 234 252 239 262 276 192 157 200 228 228 246 287 309 319 321 315 313 318 323 328 333 332 330 326 322 320 319 315 308 296 291 282 279 278 278 278 278 277 272 265 260
114 221 240 259 271 259 254 262 218 204 212 219 242 243 278 290 289 297 305 317 322 329 336 335 333 328 323 321 320 321 317 315 305 290 286 284 285 283 282 283 281 282 280 276
77 219 282 282 280 278 289 285 237 230 232 245 266 278 297 310 317 313 312 318 320 325 328 329 329 327 324 321 318 317 317 316 312 293 287 292 293 291 287 284 279 280 284 285
179 168 250 271 310 337 295 274 201 208 216 205 240 266 321 325 315 306 310 319 320 321 321 322 320 317 315 313 310 306 307 310 310 300 295 297 296 295 292 288 284 281 280 280
161 164 201 289 357 268 249 349 193 209 269 243 271 301 308 301 297 298 307 316 319 318 317 316 314 313 312 310 309 307 309 312 311 309 304 301 299 293 291 286 282 285 284 277
154 165 179 204 269 272 291 323 344 247 285 308 290 304 314 317 311 298 326 330 309 305 305 305 306 305 312 313 312 313 316 319 319 315 309 301 294 292 288 282 281 281 281 283
58 92 156 181 232 255 270 307 314 145 271 314 319 304 311 331 320 300 326 327 319 316 314 313 313 317 321 317 315 315 315 317 312 306 302 299 295 285 280 277 275 276 274 276
60 107 198 210 233 263 289 310 8 174 276 310 297 294 300 287 270 292 314 321 322 321 319 319 321 326 322 322 326 325 324 315 303 304 305 307 304 294 288 281 278 279 277 281
181 187 207 183 216 261 315 75 176 248 296 299 293 292 293 290 298 308 318 323 326 327 327 329 331 328 327 330 335 332 326 315 313 313 314 314 311 306 309 296 293 286 275 277
193 198 197 195 217 264 159 201 259 279 286 291 292 298 301 300 306 316 323 325 326 327 328 331 332 332 334 337 339 333 323 323 327 330 326 324 325 324 318 309 309 309 300 292
283 235 192 248 261 264 255 288 304 294 287 296 298 299 302 304 311 320 324 326 329 329 330 334 340 343 340 339 340 330 325 331 335 336 334 335 336 338 335 332 329 323 312 303
256 192 219 259 287 306 287 290 305 316 319 319 321 317 311 313 317 320 322 324 328 330 334 339 342 339 335 337 339 335 333 335 340 339 339 341 345 341 336 332 329 326 313 312
231 189 199 241 250 242 278 302 318 320 321 322 328 330 330 322 314 322 322 324 329 332 336 340 340 338 335 337 338 337 337 339 342 343 342 340 342 342 339 332 330 333 336 334
Height
1497 1502 1505 1503 1503 1502 1503 1504 1504 1501 1498 1499 1500 1498 1496 1494 1494 1493 1493 1493 1493 1493 1494 1495 1495 1496 1496 1497 1498 1498 1499 1500 1501 1502 1502 1502 1502 1502 1502 1502 1502 1503 1503 1504
1503 1504 1501 1501 1501 1502 1502 1504 1504 1501 1498 1499 1499 1498 1495 1493 1492 1492 1491 1491 1491 1491 1491 1492 1493 1493 1493 1494 1495 1496 1496 1497 1498 1498 1499 1499 1499 1499 1499 1499 1499 1500 1500 1501
1501 1501 1498 1500 1501 1502 1502 1504 1503 1502 1500 1498 1500 1498 1495 1492 1491 1491 1490 1489 1489 1489 1489 1490 1490 1490 1490 1491 1491 1492 1493 1494 1494 1495 1496 1496 1496 1496 1496 1496 1496 1496 1497 1497
1501 1499 1499 1500 1501 1501 1502 1500 1500 1501 1505 1505 1502 1505 1496 1493 1492 1491 1490 1489 1488 1488 1488 1488 1488 1487 1487 1488 1489 1489 1490 1491 1491 1492 1492 1492 1491 1491 1492 1492 1492 1493 1493 1494
1501 1500 1500 1500 1500 1500 1501 1499 1500 1501 1504 1507 1504 1506 1497 1494 1493 1492 1490 1489 1488 1488 1487 1487 1486 1485 1485 1485 1486 1486 1486 1487 1487 1487 1488 1488 1488 1488 1489 1489 1489 1490 1490 1490
1501 1499 1499 1499 1498 1499 1499 1501 1502 1505 1508 1507 1501 1504 1497 1496 1491 1491 1490 1489 1488 1487 1486 1485 1485 1484 1484 1483 1483 1483 1483 1483 1483 1484 1484 1484 1484 1485 1485 1485 1485 1485 1485 1485
1503 1500 1498 1498 1499 1499 1501 1506 1512 1512 1513 1504 1499 1500 1498 1493 1491 1490 1490 1489 1488 1487 1486 1484 1483 1482 1481 1481 1481 1481 1481 1480 1481 1481 1481 1481 1481 1481 1481 1481 1481 1481 1481 1481
1507 1504 1499 1498 1499 1501 1502 1503 1509 1511 1510 1504 1499 1500 1496 1493 1491 1490 1490 1489 1488 1486 1485 1483 1482 1481 1480 1479 1479 1478 1478 1477 1477 1477 1477 1478 1478 1477 1477 1477 1477 1477 1477 1477
1508 1504 1499 1497 1497 1498 1501 1505 1504 1510 1511 1511 1502 1502 1495 1492 1492 1491 1490 1488 1487 1486 1484 1483 1481 1480 1478 1477 1477 1476 1475 1475 1474 1474 1474 1474 1473 1473 1473 1473 1473 1473 1473 1473
1506 1507 1500 1499 1498 1499 1499 1502 1508 1510 1510 1507 1500 1503 1497 1494 1492 1491 1490 1488 1487 1485 1483 1482 1480 1478 1477 1476 1474 1474 1473 1472 1471 1471 1470 1470 1469 1469 1469 1469 1468 1468 1468 1468
1506 1508 1504 1502 1501 1500 1502 1503 1504 1507 1508 1508 1506 1500 1492 1491 1491 1491 1489 1488 1487 1485 1483 1481 1479 1477 1475 1474 1472 1471 1470 1469 1468 1468 1467 1466 1465 1465 1465 1464 1464 1464 1464 1464
1506 1510 1509 1503 1499 1498 1498 1500 1503 1507 1507 1509 1509 1503 1491 1490 1489 1489 1489 1488 1486 1484 1482 1480 1477 1475 1473 1471 1469 1468 1467 1466 1465 1464 1463 1462 1461 1461 1460 1459 1459 1459 1459 1459
1507 1511 1510 1502 1503 1502 1501 1501 1502 1504 1506 1509 1508 1501 1490 1489 1489 1489 1488 1487 1485 1483 1480 1478 1475 1473 1471 1469 1467 1465 1464 1462 1461 1460 1459 1458 1457 1456 1455 1455 1454 1454 1454 1454
1504 1509 1510 1505 1500 1501 1503 1503 1503 1504 1506 1506 1503 1496 1491 1490 1490 1488 1487 1486 1484 1481 1479 1476 1473 1471 1468 1466 1464 1462 1460 1459 1457 1456 1455 1454 1453 1452 1451 1451 1450 1449 1449 1448
1504 1508 1508 1504 1501 1503 1503 1502 1503 1504 1503 1502 1496 1496 1492 1490 1490 1488 1486 1484 1481 1479 1476 1474 1471 1468 1466 1463 1461 1459 1457 1455 1454 1452 1451 1450 1449 1448 1447 1446 1445 1445 1444 1443
1505 1507 1507 1504 1499 1501 1500 1499 1500 1500 1501 1501 1498 1495 1491 1490 1488 1486 1484 1482 1480 1477 1474 1471 1469 1466 1463 1460 1457 1455 1453 1451 1450 1448 1447 1446 1445 1444 1443 1442 1441 1440 1439 1439
1507 1508 1508 1504 1501 1499 1500 1499 1500 1501 1500 1500 1499 1496 1492 1490 1487 1485 1483 1481 1478 1476 1473 1469 1466 1463 1460 1456 1454 1451 1449 1447 1445 1444 1442 1442 1441 1439 1439 1438 1437 1436 1435 1435
1507 1508 1508 1507 1506 1505 1500 1498 1498 1498 1499 1498 1496 1495 1492 1490 1486 1483 1481 1479 1476 1474 1470 1467 1463 1460 1456 1453 1450 1447 1445 1443 1441 1440 1438 1437 1436 1435 1434 1433 1432 1432 1431 1431
1503 1506 1509 1511 1512 1505 1499 1498 1499 1499 1498 1496 1496 1493 1490 1487 1483 1480 1479 1477 1475 1471 1468 1464 1460 1457 1453 1450 1447 1444 1441 1439 1437 1436 1434 1433 1432 1431 1430 1429 1428 1428 1427 1427
1505 1506 1510 1512 1509 1505 1499 1499 1497 1499 1498 1494 1493 1491 1489 1487 1485 1479 1477 1475 1471 1468 1465 1461 1457 1454 1450 1447 1444 1440 1437 1435 1433 1432 1430 1429 1428 1427 1426 1425 1424 1424 1423 1423
1510 1511 1512 1512 1512 1504 1502 1498 1497 1500 1496 1493 1491 1490 1488 1486 1484 1479 1475 1472 1469 1465 1461 1458 1454 1450 1447 1444 1441 1437 1434 1432 1430 1428 1426 1425 1424 1423 1422 1422 1421 1420 1420 1419
1510 1512 1513 1513 1513 1507 1500 1499 1500 1498 1493 1491 1489 1488 1486 1483 1480 1476 1473 1469 1466 1462 1458 1455 1451 1448 1445 1442 1438 1435 1431 1429 1427 1425 1423 1421 1420 1420 1419 1418 1417 1417 1416 1416
1508 1508 1507 1508 1505 1500 1498 1497 1496 1494 1492 1489 1487 1485 1483 1480 1477 1474 1470 1467 1463 1460 1456 1453 1450 1446 1443 1440 1436 1432 1429 1427 1424 1422 1419 1418 1417 1416 1415 1415 1414 1413 1413 1412
1505 1504 1504 1504 1499 1497 1496 1495 1493 1492 1490 1487 1485 1483 1480 1477 1474 1471 1468 1465 1462 1458 1455 1451 1448 1444 1441 1438 1435 1431 1428 1425 1422 1419 1417 1415 1414 1413 1412 1412 1411 1410 1410 1409
1504 1503 1503 1501 1498 1495 1493 1492 1491 1489 1487 1485 1482 1480 1478 1475 1472 1470 1467 1463 1460 1457 1453 1450 1447 1443 1439 1436 1433 1430 1427 1424 1421 1418 1416 1414 1412 1411 1410 1410 1409 1408 1408 1408
1501 1502 1502 1499 1495 1495 1492 1491 1489 1487 1485 1483 1480 1477 1476 1473 1470 1468 1465 1462 1459 1455 1452 1448 1445 1442 1438 1435 1432 1429 1425 1423 1420 1417 1415 1413 1411 1410 1409 1408 1407 1407 1406 1406